Location: Newark
(39.5667°N, 8.9833°E)
Time: 15:45:56
(UTC+00:00)

Transit 2A - Pass Details

Date: 31 October 2019
Orbit: 601 x 957 km, 66.7° (Epoch: 16 November)

Event Time Altitude Azimuth Distance (km) Brightness Sun altitude
Rises 14:05:10 0° 152° (SSE) 3,358 9.5 22.3°
Reaches altitude 10° 14:10:35 10° 109° (ESE) 2,312 8.3 21.5°
Maximum altitude 14:10:58 10° 105° (ESE) 2,298 8.2 21.4°
Drops below altitude 10° 14:11:20 10° 101° (E) 2,295 8.2 21.4°
Sets 14:16:23 0° 56° (ENE) 3,107 8.5 20.6°
